Flag for Colombia Weather past 2 weeks in San Andrés, Colombia

Now
81 °F

Passing clouds.


Feels Like: 87 °F
Forecast: 76 / 85 °F
Wind: No wind

Location: San Andres Isla / Sesquicentenario

Current Time: Oct 26, 2014 at 1:29:05 AM

Latest Report: Oct 26, 2014 at 1:00 AM


Visibility: N/A

Pressure: 29.81 "Hg

Humidity: 89%

Dew point: 77 °F

Location of San AndrésLocation

Historic Weather in San Andrés — Graph

°F

San Andrés temperature yesterday

Maximum temperature yesterday: 86 °F (at 11:00 AM)
Minimum temperature yesterday: 79 °F (at 4:00 AM)
Average temperature yesterday: 83 °F

Past Weeks' High & Low Weather Summary

 TemperatureHumidityPressure
High90 °F (Oct 24, 2:00 PM)100% (Oct 14, 12:00 PM)29.93 "Hg (Oct 14, 12:00 PM)
Low77 °F (Oct 14, 12:00 PM)62% (Oct 11, 4:00 PM)29.73 "Hg (Oct 21, 5:00 PM)
Average82 °F85%29.83 "Hg
* Reported Midnight between Oct 10 and Oct 11 — Midnight between Oct 25 and Oct 26, San Andrés, Weather by CustomWeather, © 2014

Note: Actual official high and low records may vary slightly from our data, if they occured in-between our weather recording intervals... More about our weather records

Advertising

San Andrés weather history for previous 24 hours

 ConditionsComfort  
Time TempWeatherWind HumidityBarometerVisibility
12:00 AM
Oct 26
82 °FPassing clouds.No wind84%29.83 "HgN/A
11:00 PM
Oct 25
82 °FPassing clouds.No wind84%29.83 "HgN/A
10:00 PM82 °FPassing clouds.No wind84%29.84 "HgN/A
9:00 PM82 °FPassing clouds.No wind84%29.83 "HgN/A
8:00 PM82 °FPassing clouds.No wind84%29.81 "HgN/A
7:00 PM82 °FPassing clouds.No wind84%29.79 "HgN/A
6:00 PM84 °FOvercast.No wind84%29.78 "HgN/A
5:00 PM86 °FOvercast.No wind79%29.77 "HgN/A
4:00 PM86 °FBroken clouds.No wind79%29.78 "HgN/A
3:00 PM86 °FPartly sunny.No wind79%29.80 "HgN/A
2:00 PM86 °FPartly sunny.No wind79%29.82 "HgN/A
1:00 PM84 °FMore clouds than sun.No wind84%29.85 "HgN/A
12:00 PM86 °FMore clouds than sun.No wind79%29.86 "HgN/A
11:00 AM86 °FMore clouds than sun.2 mph79%29.87 "HgN/A
10:00 AM84 °FMore clouds than sun.No wind84%29.88 "HgN/A
9:00 AM84 °FOvercast.No wind84%29.86 "HgN/A
8:00 AM82 °FOvercast.No wind89%29.86 "HgN/A
7:00 AM79 °FOvercast.No wind94%29.84 "HgN/A
6:00 AM79 °FPassing clouds.No wind94%29.82 "HgN/A
5:00 AM79 °FPassing clouds.No wind94%29.80 "HgN/A
4:00 AM79 °FPassing clouds.No wind94%29.79 "HgN/A
3:00 AM81 °FPassing clouds.No wind89%29.79 "HgN/A
2:00 AM81 °FPassing clouds.No wind89%29.81 "HgN/A
1:00 AM81 °FPassing clouds.No wind89%29.83 "HgN/A
Weather by CustomWeather, © 2014

See weather overviewHow to use our weather pages